Regional Weather Roundup
Issued by NWS

Home | Current Version | Previous Version | Graphics & Text | Print | Product List | Glossary Off
Versions: 1 2 3 4 5 6 7 8 9 10 11 12 13 14 15 16 17 18 19 20 21 22 23 24 25 26 27 28 29 30 31 32 33 34 35 36 37 38 39 40 41 42 43 44 45 46 47 48 49 50

000
ASUS44 KMEG 062110
RWRTN
TENNESSEE HOURLY STATE WEATHER ROUNDUP
NATIONAL WEATHER SERVICE MEMPHIS TN
400 PM CDT WED MAY 06 2015

TNZ002-004-019-021-049-052-054-088>092-062200-
WEST TENNESSEE

CITY           SKY/WX    TMP DP  RH WIND       PRES   REMARKS
MEMPHIS INTL   PTSUNNY   84  49  29 SE10      30.06F
NWS MEMPHIS      N/A     85 N/A N/A MISG        N/A
JACKSON        SUNNY     82  50  32 SE5       30.08F
DYERSBURG      MOSUNNY   84  48  28 SE12      30.07F
PARIS          SUNNY     82  54  36 SE8       30.10F
LEXINGTON      MOSUNNY   79  48  34 SE7       30.09F
$$

TNZ008-025-027-028-033-062-065-066-062200-
NORTH MIDDLE TENNESSEE

CITY           SKY/WX    TMP DP  RH WIND       PRES   REMARKS
NASHVILLE      MOSUNNY   85  52  32 CALM      30.10F
CLARKSVILLE    PTSUNNY   82  58  43 E8        30.09F
SMYRNA         MOSUNNY   84  54  35 VRB3      30.10F
COOKEVILLE     SUNNY     84  59  42 VRB3      30.11F
CROSSVILLE     MOSUNNY   81  45  28 SE7       30.15F
$$

TNZ061-075-076-078-094-096-097-062200-
SOUTH MIDDLE TENNESSEE

CITY           SKY/WX    TMP DP  RH WIND       PRES   REMARKS
FAYETTEVILLE     N/A     81  48  32 SE5       30.11F
TULLAHOMA      PTSUNNY   81  48  32 E3        30.12F
WINCHESTER     SUNNY     82  50  32 S8        30.11F
MCMINNVILLE    MOSUNNY   82  57  42 S3        30.11F
COLUMBIA       SUNNY     82  55  39 SE6       30.09F
SHELBYVILLE    MOSUNNY   84  57  39 SE3       30.11F
$$

TNZ017-018-042-046-047-062200-
NORTHEAST TENNESSEE

CITY           SKY/WX    TMP DP  RH WIND       PRES   REMARKS
TRI CITIES     TSTM      71  60  68 N8        30.14S
$$

TNZ012-013-036-069-073-074-062200-
CENTRAL EAST TENNESSEE

CITY           SKY/WX    TMP DP  RH WIND       PRES   REMARKS
KNOXVILLE      MOSUNNY   84  53  34 NW8       30.09F
OAK RIDGE      SUNNY     85  53  33 CALM      30.11F
GATLINBURG     CLEAR     84  52  32 VRB5      30.08F
MORRISTOWN       N/A     82  55  39 N7        30.12F
$$

TNZ083-085-099-062200-
SOUTHEAST TENNESSEE

CITY           SKY/WX    TMP DP  RH WIND       PRES   REMARKS
CHATTANOOGA    MOSUNNY   83  52  34 VRB3      30.10F
$$

SKY/WX REPORTED AS FAIR MEANS FEW OR NO CLOUDS BELOW
12 THOUSAND FEET.




USA.gov is the U.S. government's official web portal to all federal, state and local government web resources and services.